Find Starlink 38194

NORAD ID: 100437 Int'l Des: 2026-193 Owner: SPXS Country: US Constellation: starlink operational

当前视图

正在加载3D地球...

About Starlink 38194

Starlink 38194 (NORAD 100437) is a starlink constellation satellite launched Aug 22, 2026 by SPXS of US. with a mass of 575.00 kg.

即将过境

Passes for default location (London). Set your location on the main map for personalized predictions.

高度历史

Loading altitude history...

两行轨道根数

1 A0437U 26193E 26248.22471302 .00141199 00000-0 67591-3 0 9994
2 A0437 69.9998 117.0037 0003465 276.2854 83.7954 15.82203036 3309
Epoch: Sep 5, 2026 • Age: 9 hours

当前状态

高度 334.7 km
远地点 / 近地点 N/A
速度 7.71 km/s
星下点 -33.98°S, 98.04°W
发射日期 Aug 22, 2026
运行时间 14 days
类型 internet

技术详情

分类 Payload
质量 575.00 kg
干质量 530.00 kg
总质量 575.00 kg
长度 0.30 m
直径 4.10 m
跨度 29.00 m
形状 Box + pan
制造商 SPXS
平台类型 Starlink V2MO
阶段状态 In Orbit
所有者/国家 SPXS/US

Most Searched